OPS 4682 DEB, 38385

Orbit data source: Space-Track

OPS 4682 DEB, 38385 is space debris in LEO originally from a launch on Sat, 03 Apr 1965 UTC launched from the Air Force Western Test Range (AFWTR). Debris objects in space refer to the collection of defunct objects orbiting the Earth. Examples of debris include non-operational satellites, rocket bodies, and fragments generated from explosions, collisions, or faulty payload assembly.

Loading next visibility...
Identifier
38385, 1965-027CN
Orbit
LEO
Country
Flag of USUS
Related business
Manufacturer
Unknown
Mission
Spacecraft
Bus & Motor
Unknown
Mass
Unknown
Launch date (UTC)
1965-04-03 (61 years ago)
Launch vehicle
Unknown
Launch site
Air Force Western Test Range (AFWTR)
Object type
Payload
Rocket body
Debris
Shape & HBR
Unknown shape, 0.1 m
Radar Cross Section
Small (<0.1 m²)

Expand to show TLE details & history
Last TLE update: 10 hours ago

TLE from 10 hours ago
0 OPS 4682 DEB
1 38385U 65027CN  25304.38113271  .00000772  00000-0  26584-2 0  9990
2 38385  90.2411 353.8506 0041567 318.2846  41.5107 12.96618433585808
Epoch: 2025-10-31T09:08Z
TLE epoch observation values (Epoch: 2025-10-31T09:08:49.866Z)
Latitude
0.00002°
Longitude
176.71644°
Altitude
1,254.474 km
Speed
7.239 km/s
True Right ascension
23h 35m 24s
True Declination
0° 00' 00"
Sunlit
Object was in full shadow at epoch
Visualization orbit readout
Latitude
Unknown
Longitude
Unknown
Altitude
Unknown
Speed
Unknown
Apparent Right ascension
Unknown
Apparent Declination
Unknown
Sunlit
N/A
Visualization observer readout
Local Sidereal Time
14:48:18
Azimuth
Unknown
Elevation
Unknown
Doppler factor
Unknown
Orbital elements
Apogee altitude
1,304.298 km
Perigee altitude
1,240.695 km
Semi-major axis
7,650.634 km
Eccentricity
0.00416
Inclination
90.2411°
RAAN
353.8506°
Arg. of periapsis
318.2846°
True anomaly
41.82762°
Mean anomaly
41.5107°
Eccentric anomaly
41.66904°
Mean motion
3.24337 °/min
Orbital period
111 mins
BSTAR
0.0026584
Loading maneuver chart data...
Computing Atmospheric mass density...
Loading historical data...
Loading historical data...
Loading historical data...
Loading historical data...
Loading historical data...
Loading historical data...
Loading historical data...

Documentation

Showing up to 5 results
|